1531850400.9,8231,17.0,73306.0,5.41,4.81,4.81,0,*45
1531850402.12,8232,17.0,73308.3,5.41,4.79,4.79,0,*46
1531850403.34,8233,17.0,73306.5,5.37,4.79,4.79,0,*46
1531850404.5,8234,17.0,73324.3,5.41,4.81,4.81,0,*40
1531850405.67,8235,17.0,73314.8,5.37,4.81,4.81,0,*40
1531850406.9,8236,17.0,73318.5,5.41,4.71,4.71,0,*42
1531850408.12,8237,17.0,73318.0,5.41,4.67,4.67,0,*43
1531850409.34,8238,17.0,73296.5,5.41,4.67,4.67,0,*4C
1531850410.56,8239,17.0,73304.0,5.41,4.67,4.67,0,*4D
1531850411.79,8240,17.0,73306.0,5.37,4.63,4.63,0,*42
1531850413.01,8241,17.0,73314.0,5.41,4.67,4.67,0,*42
1531850414.23,8242,17.0,73304.3,5.41,4.67,4.67,0,*41
1531850415.4,8243,17.0,73298.3,5.37,4.49,4.57,0,*4E
1531850416.58,8244,17.0,73300.0,5.37,4.33,4.33,0,*46
1531850417.77,8245,17.0,73288.8,5.37,4.63,4.53,0,*44
1531850418.99,8246,17.0,73298.5,5.41,4.67,4.67,0,*45
1531850420.22,8247,17.0,73286.3,5.41,4.67,4.75,0,*47
1531850421.41,8248,17.0,73288.8,5.41,4.75,4.81,0,*40
1531850422.64,8249,17.0,73296.5,5.41,4.93,4.93,0,*4A
1531850423.81,8250,17.0,73308.8,5.41,4.85,4.85,0,*42
1531850425.04,8251,17.0,73296.3,5.41,4.71,4.75,0,*47
1531850426.2,8252,17.0,73284.3,5.41,4.49,4.49,0,*40
1531850427.36,8253,17.0,73284.8,5.41,4.45,4.45,0,*41
1531850428.59,8254,17.0,73288.8,5.37,4.63,4.63,0,*47
1531850429.81,8255,17.0,73302.3,5.37,4.67,4.63,0,*42
1531850430.98,8256,17.0,73304.3,5.41,4.85,4.85,0,*44
1531850432.21,8257,17.0,73292.5,5.41,4.71,4.71,0,*45
1531850433.44,8258,17.0,73294.8,5.41,4.75,4.71,0,*4E
1531850434.64,8259,17.0,73292.3,5.41,4.85,4.93,0,*4C
1531850435.86,8260,17.0,73296.0,5.41,4.97,4.93,0,*45
1531850437.03,8261,17.0,73300.3,5.41,4.81,4.85,0,*44
1531850438.25,8262,17.0,73284.8,5.41,4.67,4.59,0,*4E
1531850439.47,8263,17.0,73276.0,5.41,4.59,4.67,0,*4F
1531850440.69,8264,17.0,73274.0,5.41,4.67,4.67,0,*45
1531850441.91,8265,17.0,73240.0,5.41,4.59,4.59,0,*44
1531850443.14,8266,17.0,73258.3,5.41,4.59,4.67,0,*4A
1531850444.36,8267,17.0,73258.3,5.37,4.63,4.63,0,*47
1531850445.55,8268,17.0,73268.8,5.41,4.75,4.81,0,*42
1531850446.72,8269,17.0,73266.0,5.41,4.85,4.81,0,*4C
1531850447.89,8270,17.0,73282.3,5.41,4.81,4.85,0,*44
1531850449.08,8271,17.0,73296.3,5.41,4.75,4.81,0,*4A
1531850450.31,8272,17.0,73270.5,5.41,4.71,4.71,0,*42
1531850451.5,8273,17.0,73286.0,5.41,4.75,4.81,0,*48
1531850452.66,8274,17.0,73298.0,5.41,4.85,4.81,0,*40
1531850453.86,8275,17.0,73298.3,5.41,4.93,4.85,0,*42
1531850455.08,8276,17.0,73302.8,5.43,4.79,4.85,0,*47
1531850456.3,8277,17.0,73292.8,5.41,4.59,4.59,0,*47
1531850457.52,8278,17.0,73280.0,5.41,4.59,4.59,0,*48
1531850458.69,8279,17.0,73280.5,5.41,4.57,4.57,0,*49
1531850459.89,8280,17.0,73282.8,5.41,4.57,4.59,0,*41
1531850461.1,8281,17.0,73292.0,5.41,4.67,4.59,0,*43
1531850462.32,8282,17.0,73294.5,5.41,4.63,4.59,0,*44
1531850463.49,8283,17.0,73276.5,5.41,4.57,4.57,0,*4C
1531850464.71,8284,17.0,73288.0,5.41,4.67,4.67,0,*4B
1531850465.94,8285,17.0,73296.3,5.41,4.71,4.71,0,*4A
1531850467.17,8286,17.0,73290.0,5.41,4.75,4.75,0,*49
1531850468.39,8287,17.0,73296.8,5.41,4.79,4.79,0,*48
1531850469.55,8288,17.0,73304.5,5.41,4.85,4.81,0,*43
1531850470.78,8289,17.0,73298.5,5.41,4.71,4.71,0,*46
1531850472.02,8290,17.0,73312.0,5.41,4.71,4.71,0,*4E
1531850473.24,8291,17.0,73324.8,5.41,4.75,4.71,0,*4B
1531850474.47,8292,17.0,73308.3,5.41,4.71,4.71,0,*4C
1531850475.71,8293,17.0,73318.5,5.41,4.71,4.75,0,*49
1531850476.93,8294,17.0,73310.3,5.41,4.75,4.75,0,*4A
1531850478.1,8295,17.0,73314.8,5.41,4.81,4.85,0,*4F
1531850479.29,8296,17.0,73322.8,5.41,4.75,4.81,0,*43
1531850480.52,8297,17.0,73314.8,5.41,4.75,4.71,0,*4D
1531850481.76,8298,17.0,73310.5,5.43,4.79,4.79,0,*44
1531850482.95,8299,17.0,73344.3,5.41,4.75,4.81,0,*4C
1531850484.18,8300,17.0,73302.3,5.41,4.71,4.71,0,*46
1531850485.41,8301,17.0,73292.8,5.41,4.59,4.67,0,*4A
1531850486.63,8302,17.0,73266.5,5.41,4.67,4.67,0,*44
1531850487.85,8303,17.0,73328.0,5.41,4.67,4.67,0,*45
1531850489.07,8304,17.0,73288.8,5.41,4.67,4.67,0,*42
1531850490.29,8305,17.0,73300.5,5.41,4.67,4.67,0,*43
1531850491.51,8306,17.0,73304.3,5.41,4.67,4.59,0,*4D
1531850492.73,8307,17.0,73328.3,5.41,4.67,4.67,0,*41
1531850493.95,8308,17.0,73328.8,5.41,4.59,4.59,0,*4E
1531850495.13,8309,17.0,73324.3,5.41,4.37,4.37,0,*4F
1531850496.3,8310,17.0,73324.3,5.41,4.49,4.57,0,*48
1531850497.52,8311,17.0,73284.3,5.41,4.67,4.67,0,*46
1531850498.75,8312,17.0,73280.5,5.41,4.71,4.71,0,*45
1531850499.92,8313,17.0,73288.8,5.41,4.81,4.85,0,*40
1531850501.09,8314,17.0,73300.8,5.41,4.85,4.85,0,*43
1531850502.25,8315,17.0,73308.0,5.41,4.81,4.85,0,*46
1531850503.45,8316,17.0,73310.5,5.41,4.75,4.81,0,*4A
1531850504.61,8317,17.0,73314.3,5.41,4.81,4.81,0,*40
1531850505.86,8318,17.0,73308.8,5.43,4.75,4.75,0,*4D
1531850507.08,8319,17.0,73308.3,5.41,4.67,4.59,0,*43
1531850508.3,8320,17.0,73318.0,5.41,4.67,4.67,0,*44
1531850509.52,8321,17.0,73308.8,5.41,4.67,4.67,0,*45
1531850510.74,8322,17.0,73310.5,5.41,4.67,4.67,0,*46
1531850511.97,8323,17.0,73312.8,5.41,4.75,4.75,0,*47
1531850513.2,8324,17.0,73310.3,5.41,4.71,4.71,0,*40
1531850514.42,8325,17.0,73302.8,5.41,4.67,4.67,0,*41
1531850515.64,8326,17.0,73302.0,5.41,4.59,4.67,0,*4F
1531850516.87,8327,17.0,73308.3,5.41,4.67,4.67,0,*43
1531850518.09,8328,17.0,73300.3,5.41,4.67,4.67,0,*4C
1531850519.31,8329,17.0,73308.3,5.41,4.67,4.67,0,*4D
1531850520.53,8330,17.0,73292.0,5.41,4.67,4.71,0,*42
1531850521.7,8331,17.0,73286.0,5.41,4.85,4.85,0,*44
1531850522.89,8332,17.0,73290.3,5.41,4.75,4.81,0,*4C
1531850524.09,8333,17.0,73296.8,5.41,4.75,4.85,0,*49
1531850525.28,8334,17.0,73284.0,5.41,4.85,4.93,0,*46
1531850526.45,8335,17.0,73292.3,5.41,4.81,4.85,0,*44
1531850527.65,8336,17.0,73290.3,5.43,4.89,4.85,0,*4D
1531850528.87,8337,17.0,73284.3,5.41,4.75,4.79,0,*4E
1531850530.1,8338,17.0,73286.3,5.41,4.59,4.67,0,*40
1531850531.32,8339,17.0,73304.3,5.41,4.59,4.67,0,*41
1531850532.55,8340,17.0,73296.0,5.41,4.59,4.67,0,*4F
1531850533.74,8341,17.0,73292.3,5.41,4.57,4.59,0,*4D
1531850534.96,8342,17.0,73284.0,5.41,4.67,4.67,0,*40
1531850536.18,8343,17.0,73296.8,5.41,4.75,4.75,0,*41
1531850537.35,8344,17.0,73300.8,5.41,4.85,4.85,0,*46
1531850538.52,8345,17.0,73316.5,5.41,4.81,4.85,0,*43
1531850539.69,8346,17.0,73314.3,5.41,4.81,4.85,0,*40
1531850540.85,8347,17.0,73304.3,5.41,4.81,4.81,0,*45
1531850542.05,8348,17.0,73306.3,5.41,4.93,4.85,0,*4D
1531850543.24,8349,17.0,73302.3,5.43,4.85,4.89,0,*45
1531850544.41,8350,17.0,73292.5,5.41,4.85,4.89,0,*4F
1531850545.6,8351,17.0,73304.8,5.43,4.85,4.89,0,*4C
1531850546.85,8352,17.0,73302.8,5.43,4.75,4.79,0,*4F
1531850548.1,8353,17.0,73308.3,5.43,4.75,4.75,0,*42
1531850549.32,8354,17.0,73304.8,5.41,4.59,4.67,0,*4A
1531850550.54,8355,17.0,73302.0,5.41,4.67,4.59,0,*4B
1531850551.8,8356,17.0,73302.3,5.43,4.71,4.71,0,*47
1531850553.05,8357,17.0,73304.5,5.43,4.79,4.79,0,*46
1531850554.3,8358,17.0,73300.0,5.43,4.75,4.75,0,*49
1531850555.53,8359,17.0,73302.3,5.41,4.71,4.67,0,*4D
1531850556.76,8360,17.0,73310.0,5.41,4.71,4.71,0,*40
1531850557.99,8361,17.0,73306.3,5.41,4.71,4.71,0,*41
1531850559.21,8362,17.0,73312.0,5.41,4.67,4.67,0,*42
1531850560.43,8363,17.0,73316.0,5.43,4.89,4.79,0,*4E
1531850561.63,8364,17.0,73308.8,5.43,4.85,4.85,0,*46
1531850562.86,8365,17.0,73318.3,5.41,4.71,4.75,0,*41
1531850564.11,8366,17.0,73312.3,5.43,4.75,4.75,0,*44
1531850565.31,8367,17.0,73312.3,5.41,4.59,4.57,0,*49
1531850566.53,8368,17.0,73310.5,5.41,4.59,4.59,0,*48
1531850567.78,8369,17.0,73310.3,5.43,4.75,4.71,0,*4F
1531850569.0,8370,17.0,73296.3,5.41,4.67,4.67,0,*41
1531850570.23,8371,16.94,73296.8,5.41,4.67,4.71,0,*47
1531850571.46,8372,17.0,73290.8,5.41,4.71,4.75,0,*47
1531850572.71,8373,17.0,73286.5,5.43,4.79,4.75,0,*4C
1531850573.87,8374,17.0,73302.3,5.45,4.81,4.81,0,*41
1531850575.04,8375,17.0,73306.3,5.41,4.85,4.85,0,*44
1531850576.27,8376,17.0,73310.3,5.41,4.75,4.75,0,*47
1531850577.5,8377,17.0,73308.0,5.41,4.71,4.71,0,*46
1531850578.76,8378,17.0,73302.0,5.43,4.71,4.63,0,*48
1531850579.98,8379,17.0,73308.5,5.41,4.67,4.67,0,*48
1531850581.22,8380,17.0,73300.5,5.43,4.63,4.59,0,*45
1531850582.47,8381,17.0,73302.3,5.43,4.63,4.63,0,*4D
1531850583.69,8382,17.0,73306.3,5.43,4.79,4.85,0,*4D
1531850584.86,8383,17.0,73310.3,5.41,4.89,4.89,0,*4D
1531850586.06,8384,17.0,73304.0,5.43,4.89,4.85,0,*44
1531850587.25,8385,17.0,73308.3,5.43,4.85,4.85,0,*49
1531850588.5,8386,17.0,73292.0,5.43,4.79,4.79,0,*4A
1531850589.72,8387,17.0,73292.3,5.43,4.97,4.89,0,*44
1531850590.94,8388,17.0,73282.3,5.41,4.93,4.97,0,*42
1531850592.17,8389,17.0,73288.0,5.49,5.01,5.01,0,*4F
1531850593.4,8390,17.0,73306.5,5.45,5.01,5.01,0,*4B
1531850594.62,8391,17.0,73322.3,5.45,5.05,5.05,0,*4A
1531850595.78,8392,17.0,73318.3,5.45,4.81,4.89,0,*41
1531850597.01,8393,17.0,73310.3,5.45,4.67,4.75,0,*4B
1531850598.2,8394,17.0,73316.0,5.45,4.81,4.79,0,*48
1531850599.42,8395,17.0,73308.3,5.45,4.79,4.79,0,*4E
1531850600.65,8396,17.0,73308.5,5.45,4.67,4.75,0,*4E
1531850601.87,8397,17.0,73322.5,5.45,4.75,4.75,0,*4C
1531850603.12,8398,17.0,73314.0,5.43,4.75,4.71,0,*41
1531850604.37,8399,17.0,73308.8,5.43,4.59,4.63,0,*4D
1531850605.62,8400,17.0,73308.8,5.43,4.59,4.59,0,*43
1531850606.84,8401,17.0,73292.3,5.45,4.67,4.63,0,*40
1531850608.09,8402,17.0,73300.3,5.43,4.63,4.63,0,*41
1531850609.34,8403,17.0,73300.3,5.43,4.75,4.79,0,*4C
1531850610.51,8404,17.0,73296.3,5.41,4.85,4.85,0,*45
1531850611.7,8405,17.0,73302.5,5.43,4.89,4.89,0,*46
1531850612.92,8406,17.0,73312.3,5.43,4.97,4.89,0,*4A
1531850614.17,8407,17.0,73302.0,5.43,4.75,4.75,0,*44
1531850615.39,8408,17.0,73316.0,5.45,4.67,4.67,0,*4D
1531850616.62,8409,17.0,73314.5,5.45,4.67,4.63,0,*48
1531850617.79,8410,17.0,73312.8,5.45,4.53,4.57,0,*40
1531850619.01,8411,17.0,73308.0,5.49,4.63,4.63,0,*49
1531850620.23,8412,17.0,73288.0,5.41,4.59,4.59,0,*42
1531850621.48,8413,17.0,73296.5,5.43,4.59,4.63,0,*48
1531850622.7,8414,17.0,73308.0,5.43,4.59,4.53,0,*4C
1531850623.86,8415,17.0,73300.5,5.41,4.49,4.49,0,*45
1531850625.11,8416,17.0,73300.8,5.43,4.59,4.59,0,*44
1531850626.28,8417,17.0,73306.8,5.41,4.57,4.57,0,*47
1531850627.51,8418,17.0,73308.5,5.41,4.59,4.67,0,*45
1531850628.72,8419,17.0,73290.5,5.41,4.67,4.59,0,*44
1531850629.94,8420,17.0,73298.0,5.41,4.59,4.59,0,*43
1531850631.2,8421,17.0,73298.3,5.43,4.71,4.71,0,*40
1531850632.46,8422,17.0,73306.5,5.43,4.75,4.75,0,*43
1531850633.68,8423,17.0,73304.5,5.41,4.59,4.59,0,*40
1531850634.93,8424,17.0,73294.3,5.43,4.59,4.71,0,*4F
1531850636.16,8425,17.0,73284.0,5.41,4.67,4.75,0,*45
1531850637.35,8426,17.0,73294.0,5.43,4.85,4.85,0,*47
1531850638.55,8427,17.0,73294.0,5.43,4.89,4.89,0,*46
1531850639.74,8428,17.0,73282.5,5.43,4.85,4.81,0,*4D
1531850640.93,8429,17.0,73284.8,5.43,4.85,4.85,0,*48
1531850642.13,8430,17.0,73292.8,5.41,4.81,4.75,0,*49
1531850643.32,8431,17.0,73294.8,5.43,4.85,4.85,0,*41
1531850644.55,8432,17.0,73298.5,5.43,4.79,4.85,0,*41
1531850645.74,8433,17.0,73306.3,5.43,4.85,4.85,0,*43
1531850646.94,8434,17.0,73308.0,5.43,4.89,4.89,0,*44
1531850648.13,8435,17.0,73300.3,5.43,4.89,4.85,0,*49
1531850649.38,8436,17.0,73314.5,5.43,4.75,4.79,0,*4A
1531850650.6,8437,16.94,73300.5,5.45,4.79,4.79,0,*41
1531850651.82,8438,17.0,73300.0,5.45,4.67,4.63,0,*4A
1531850653.04,8439,17.0,73308.3,5.45,4.79,4.79,0,*4F
1531850654.21,8440,17.0,73304.5,5.41,4.81,4.81,0,*45
1531850655.4,8441,17.0,73298.3,5.43,4.89,4.89,0,*46
1531850656.65,8442,17.0,73322.0,5.43,5.01,4.97,0,*4B
1531850657.85,8443,17.0,73312.0,5.43,4.85,4.85,0,*44
1531850659.09,8444,17.0,73322.3,5.43,4.63,4.59,0,*4A
1531850660.28,8445,17.0,73328.0,5.43,4.49,4.49,0,*42
1531850661.54,8446,17.0,73320.8,5.43,4.71,4.63,0,*42
1531850662.76,8447,17.0,73322.5,5.45,4.67,4.63,0,*42
1531850664.02,8448,17.0,73324.3,5.43,4.71,4.71,0,*4F
1531850665.21,8449,17.0,73332.8,5.43,4.85,4.85,0,*4E
1531850666.46,8450,17.0,73328.0,5.43,4.79,4.75,0,*4A
1531850667.68,8451,17.0,73326.5,5.49,4.75,4.79,0,*41
1531850668.9,8452,17.0,73328.3,5.45,4.67,4.75,0,*41
1531850670.16,8453,17.0,73332.3,5.43,4.71,4.75,0,*41
1531850671.41,8454,17.0,73334.8,5.43,4.79,4.75,0,*4E
1531850672.66,8455,17.0,73332.5,5.43,4.79,4.75,0,*4F
1531850673.92,8456,17.0,73326.8,5.43,4.75,4.75,0,*40
1531850675.11,8457,17.0,73320.3,5.45,4.81,4.79,0,*40
1531850676.33,8458,17.0,73322.5,5.45,4.79,4.79,0,*48
1531850677.58,8459,16.94,73324.3,5.43,4.75,4.75,0,*4F
1531850678.75,8460,17.0,73330.3,5.45,4.89,4.81,0,*4B
1531850679.94,8461,17.0,73324.8,5.45,4.81,4.79,0,*45
1531850681.1,8462,17.0,73320.3,5.45,4.81,4.81,0,*41
1531850682.27,8463,17.0,73324.3,5.45,4.89,4.89,0,*40
1531850683.44,8464,17.0,73322.0,5.45,4.89,4.89,0,*47
1531850684.69,8465,17.0,73322.8,5.51,5.05,5.05,0,*43
1531850685.92,8466,16.94,73318.8,5.45,5.05,5.01,0,*41
1531850687.15,8467,17.0,73316.5,5.45,5.01,5.01,0,*44
1531850688.31,8468,16.94,73310.8,5.49,4.89,4.89,0,*47
1531850689.53,8469,17.0,73310.8,5.49,4.79,4.79,0,*46
1531850690.75,8470,17.0,73308.5,5.45,4.79,4.79,0,*42
1531850691.94,8471,17.0,73320.8,5.45,4.79,4.89,0,*4C
1531850693.1,8472,17.0,73316.3,5.45,4.81,4.89,0,*48
1531850694.3,8473,17.0,73308.3,5.45,4.93,4.89,0,*4A
1531850695.49,8474,16.94,73314.8,5.49,4.93,4.89,0,*41
1531850696.72,8475,17.0,73312.8,5.45,4.93,5.01,0,*4D
1531850697.94,8476,17.0,73318.0,5.45,5.01,5.01,0,*44
1531850699.17,8477,17.0,73326.3,5.45,5.01,5.05,0,*41
1531850700.39,8478,17.0,73342.3,5.49,4.93,4.93,0,*46
1531850701.62,8479,17.0,73330.0,5.49,5.01,5.01,0,*47
1531850702.84,8480,17.0,73302.8,5.49,5.01,5.01,0,*41
1531850704.09,8481,16.94,73304.5,5.51,4.97,4.97,0,*49
1531850705.26,8482,17.0,73322.0,5.45,4.89,4.89,0,*4F
1531850706.42,8483,17.0,73322.3,5.49,4.81,4.89,0,*4A
1531850707.59,8484,17.0,73310.5,5.49,4.89,4.81,0,*4D
1531850708.75,8485,17.0,73322.0,5.45,4.81,4.81,0,*48
1531850709.91,8486,16.94,73322.5,5.49,4.81,4.81,0,*47
1531850711.07,8487,16.94,73324.0,5.49,4.81,4.81,0,*46
1531850712.32,8488,16.94,73330.0,5.51,4.97,4.97,0,*40
1531850713.57,8489,17.0,73342.0,5.51,4.93,4.97,0,*45
1531850714.74,8490,17.0,73346.5,5.45,4.81,4.89,0,*44
1531850715.92,8491,17.0,73346.3,5.49,4.79,4.81,0,*46
1531850717.09,8492,16.94,73338.8,5.49,4.89,4.81,0,*4A
1531850718.25,8493,16.94,73330.5,5.49,4.81,4.89,0,*4B
1531850719.41,8494,17.0,73334.0,5.49,4.81,4.81,0,*44
1531850720.57,8495,16.94,73330.3,5.49,4.89,4.81,0,*4D
1531850721.79,8496,17.0,73322.3,5.49,4.79,4.79,0,*46
1531850723.01,8497,17.0,73316.3,5.49,4.67,4.67,0,*47
1531850724.23,8498,17.0,73322.3,5.45,4.75,4.67,0,*47
1531850725.45,8499,16.94,73316.0,5.45,4.63,4.63,0,*45
1531850726.67,8500,17.0,73316.3,5.49,4.63,4.67,0,*4C
1531850727.84,8501,17.0,73310.5,5.49,4.57,4.57,0,*49
1531850729.06,8502,17.0,73300.0,5.49,4.63,4.63,0,*4A
1531850730.25,8503,17.0,73298.5,5.49,4.57,4.63,0,*4C
1531850731.44,8504,16.94,73298.3,5.45,4.57,4.63,0,*47
1531850732.64,8505,17.0,73300.5,5.45,4.63,4.57,0,*46
1531850733.86,8506,17.0,73310.8,5.49,4.67,4.63,0,*4A
1531850735.08,8507,17.0,73310.0,5.45,4.67,4.75,0,*40
1531850736.31,8508,17.0,73310.0,5.45,4.75,4.75,0,*4C
1531850737.53,8509,16.94,73310.0,5.45,4.67,4.75,0,*4E
1531850738.75,8510,16.94,73300.0,5.45,4.67,4.67,0,*45
1531850739.97,8511,16.94,73306.5,5.45,4.67,4.67,0,*44
1531850741.19,8512,17.0,73302.5,5.45,4.67,4.67,0,*47
1531850742.39,8513,16.94,73298.0,5.49,4.63,4.57,0,*4D
1531850743.55,8514,16.94,73276.0,5.49,4.57,4.53,0,*49
1531850744.74,8515,17.0,73284.3,5.43,4.41,4.49,0,*4E
1531850745.94,8516,16.94,73276.3,5.43,4.53,4.53,0,*45
1531850747.16,8517,17.0,73298.3,5.43,4.53,4.59,0,*4E
1531850748.41,8518,16.94,73290.8,5.43,4.59,4.59,0,*4B
1531850749.63,8519,17.0,73298.5,5.43,4.59,4.53,0,*40
1531850750.83,8520,17.0,73310.0,5.43,4.53,4.53,0,*40
1531850752.01,8521,17.0,73300.3,5.41,4.37,4.45,0,*46
1531850753.25,8522,17.0,73294.5,5.43,4.59,4.59,0,*42
1531850754.45,8523,17.0,73290.0,5.43,4.53,4.53,0,*43
1531850755.68,8524,16.94,73288.3,5.43,4.59,4.57,0,*4A
1531850756.85,8525,17.0,73280.0,5.41,4.49,4.53,0,*4C
1531850758.01,8526,17.0,73298.5,5.41,4.45,4.49,0,*48
1531850759.17,8527,16.94,73280.0,5.41,4.49,4.45,0,*49
1531850760.37,8528,17.0,73280.0,5.43,4.49,4.41,0,*40
1531850761.54,8529,16.94,73294.5,5.41,4.45,4.37,0,*4E
1531850762.76,8530,17.0,73298.0,5.43,4.59,4.53,0,*4B
1531850763.93,8531,16.94,73298.3,5.41,4.49,4.49,0,*42
1531850765.11,8532,17.0,73282.0,5.43,4.49,4.49,0,*43
1531850766.28,8533,17.0,73282.8,5.41,4.45,4.45,0,*40
1531850767.45,8534,17.0,73284.5,5.41,4.45,4.37,0,*42
1531850768.65,8535,17.0,73290.3,5.41,4.59,4.57,0,*48
1531850769.88,8536,17.0,73306.0,5.41,4.67,4.71,0,*42
1531850771.08,8537,16.94,73316.0,5.43,4.89,4.85,0,*4A
1531850772.24,8538,17.0,73314.0,5.41,4.85,4.85,0,*4B
1531850773.41,8539,16.94,73300.8,5.41,4.81,4.81,0,*4A
1531850774.57,8540,16.94,73298.0,5.41,4.85,4.81,0,*40
1531850775.8,8541,16.94,73296.8,5.41,4.93,4.93,0,*45
1531850776.99,8542,17.0,73312.0,5.43,4.85,4.85,0,*44
1531850778.16,8543,16.94,73302.3,5.41,4.85,4.85,0,*47
1531850779.35,8544,17.0,73300.8,5.43,4.85,4.89,0,*4E
1531850780.61,8545,16.94,73296.5,5.43,4.97,5.01,0,*4D
1531850781.8,8546,16.94,73296.8,5.43,4.85,4.89,0,*4C
1531850783.0,8547,17.0,73302.8,5.43,4.85,4.89,0,*4D
1531850784.19,8548,17.0,73308.8,5.41,4.81,4.75,0,*47
1531850785.39,8549,16.94,73304.0,5.43,4.85,4.89,0,*43
1531850786.61,8550,17.0,73308.8,5.43,4.97,4.89,0,*48
1531850787.8,8551,16.94,73308.8,5.43,4.85,4.89,0,*4A
1531850789.05,8552,17.0,73308.3,5.43,4.97,5.01,0,*4B
1531850790.25,8553,17.0,73310.0,5.45,4.89,4.93,0,*49
1531850791.48,8554,17.0,73310.5,5.45,4.93,5.01,0,*4F
1531850792.71,8555,16.94,73308.0,5.45,4.93,5.01,0,*4E
1531850793.93,8556,16.94,73312.0,5.45,5.05,5.05,0,*47
1531850795.15,8557,17.0,73314.0,5.49,5.01,5.05,0,*4E
1531850796.38,8558,16.94,73322.5,5.45,5.05,5.01,0,*4D
1531850797.54,8559,16.94,73302.3,5.49,4.81,4.89,0,*4C
1531850798.76,8560,17.0,73306.0,5.45,4.63,4.63,0,*42
1531850799.99,8561,16.94,73300.5,5.45,4.63,4.75,0,*44
1531850801.21,8562,17.0,73286.3,5.49,4.75,4.67,0,*4F
1531850802.43,8563,17.0,73298.8,5.45,4.63,4.67,0,*45
1531850803.6,8564,16.94,73280.5,5.45,4.45,4.53,0,*41
1531850804.79,8565,17.0,73282.8,5.45,4.63,4.57,0,*40
1531850806.01,8566,16.94,73286.5,5.45,4.63,4.63,0,*44
1531850807.23,8567,17.0,73298.3,5.45,4.75,4.67,0,*46
1531850808.42,8568,16.94,73302.5,5.43,4.49,4.49,0,*4C
1531850809.65,8569,17.0,73308.3,5.45,4.67,4.75,0,*48
1531850810.9,8570,17.0,73312.3,5.43,4.71,4.71,0,*45
1531850812.16,8571,17.0,73312.3,5.43,4.71,4.63,0,*47
1531850813.42,8572,16.94,73308.0,5.43,4.71,4.71,0,*47
1531850814.64,8573,16.94,73304.8,5.41,4.67,4.67,0,*44
1531850815.9,8574,16.94,73294.0,5.43,4.71,4.71,0,*41
1531850817.16,8575,17.0,73296.8,5.43,4.71,4.71,0,*40
1531850818.41,8576,16.94,73292.0,5.43,4.75,4.71,0,*47
1531850819.66,8577,16.94,73292.0,5.43,4.75,4.71,0,*46
1531850820.91,8578,16.94,73296.5,5.43,4.75,4.71,0,*49
1531850822.16,8579,16.94,73296.5,5.43,4.75,4.75,0,*4C
1531850823.39,8580,16.94,73306.3,5.45,4.79,4.79,0,*4C
1531850824.61,8581,16.94,73304.3,5.45,4.79,4.79,0,*4D
1531850825.86,8582,17.0,73302.3,5.43,4.75,4.75,0,*48
1531850827.08,8583,17.0,73304.8,5.45,4.79,4.79,0,*4F
1531850828.27,8584,17.0,73306.5,5.45,4.81,4.79,0,*4F
1531850829.49,8585,17.0,73308.5,5.45,4.79,4.79,0,*49
1531850830.71,8586,17.0,73314.3,5.45,4.79,4.79,0,*4A
1531850831.96,8587,16.94,73314.8,5.43,4.75,4.75,0,*4D
1531850833.22,8588,16.94,73322.3,5.43,4.75,4.71,0,*46
1531850834.41,8589,16.94,73318.8,5.45,4.79,4.81,0,*42
1531850835.57,8590,16.94,73326.0,5.45,4.81,4.81,0,*4D
1531850836.8,8591,17.0,73328.3,5.45,4.93,4.93,0,*4C
1531850837.96,8592,17.0,73324.5,5.45,4.89,4.89,0,*4F
1531850839.15,8593,16.94,73314.8,5.45,4.79,4.81,0,*49
1531850840.32,8594,17.0,73320.8,5.45,4.89,4.89,0,*49
1531850841.55,8595,16.94,73320.8,5.45,5.01,5.01,0,*48
1531850842.77,8596,16.94,73322.8,5.45,5.01,5.05,0,*4F
1531850844.0,8597,17.0,73326.8,5.45,4.93,5.01,0,*40
1531850845.23,8598,16.94,73320.3,5.45,4.93,5.01,0,*4F
1531850846.46,8599,16.94,73322.5,5.49,5.05,5.01,0,*4C
1531850847.68,8600,17.0,73324.0,5.49,5.01,5.05,0,*4F
1531850848.84,8601,17.0,73326.3,5.45,4.89,4.89,0,*46
1531850850.07,8602,16.94,73320.3,5.45,4.93,5.01,0,*4F
1531850851.3,8603,16.94,73324.0,5.49,5.05,5.01,0,*4C
1531850852.52,8604,17.0,73322.3,5.49,5.01,5.05,0,*4B
1531850853.74,8605,17.0,73324.3,5.49,5.05,5.05,0,*4E
1531850854.96,8606,16.94,73322.5,5.49,5.05,5.05,0,*4D
1531850856.21,8607,16.94,73316.3,5.51,5.05,5.05,0,*45
1531850857.43,8608,16.94,73314.5,5.49,5.01,5.01,0,*43
1531850858.66,8609,17.0,73314.3,5.49,5.05,5.01,0,*46
1531850859.82,8610,17.0,73312.0,5.49,4.89,4.89,0,*4A
1531850861.08,8611,16.94,73318.0,5.51,4.93,4.97,0,*46
1531850862.24,8612,16.94,73320.8,5.49,4.89,4.89,0,*48
1531850863.46,8613,17.0,73320.0,5.49,4.79,4.79,0,*49
1531850864.62,8614,16.94,73316.0,5.49,4.81,4.81,0,*4E
1531850865.87,8615,17.0,73322.3,5.51,4.93,4.93,0,*46
1531850867.06,8616,16.94,73308.8,5.51,4.85,4.85,0,*45
1531850868.26,8617,16.94,73304.0,5.51,4.85,4.85,0,*44
1531850869.42,8618,16.94,73294.0,5.49,4.81,4.81,0,*42
1531850870.64,8619,17.0,73318.0,5.49,4.93,4.93,0,*43
1531850871.86,8620,16.94,73302.3,5.49,4.93,4.93,0,*49
1531850873.12,8621,17.0,73294.5,5.51,4.97,4.97,0,*41
1531850874.37,8622,17.0,73306.0,5.51,4.97,4.97,0,*42
1531850875.62,8623,17.0,73308.0,5.51,4.93,4.97,0,*47
1531850876.87,8624,16.94,73314.0,5.51,4.97,4.93,0,*40
1531850878.12,8625,16.94,73318.3,5.51,4.93,4.93,0,*45
1531850879.37,8626,16.94,73308.8,5.51,4.97,4.97,0,*46
1531850880.6,8627,16.94,73310.0,5.51,4.93,4.85,0,*40
1531850881.82,8628,16.94,73302.0,5.53,4.97,5.01,0,*44
1531850883.07,8629,16.94,73302.0,5.51,4.93,4.93,0,*49
1531850884.26,8630,17.0,73306.3,5.51,4.81,4.81,0,*41
1531850885.46,8631,16.94,73288.5,5.51,4.85,4.85,0,*40
1531850886.65,8632,17.0,73302.8,5.51,4.85,4.85,0,*43
1531850887.84,8633,16.94,73286.3,5.51,4.81,4.81,0,*42
1531850889.03,8634,17.0,73292.0,5.51,4.81,4.81,0,*45
1531850890.2,8635,16.94,73308.0,5.53,4.81,4.85,0,*42
1531850891.44,8636,16.94,73328.5,5.51,4.79,4.79,0,*47
1531850892.64,8637,16.94,73336.0,5.51,4.85,4.85,0,*46
1531850893.89,8638,16.94,73332.3,5.51,4.97,4.93,0,*4D
1531850895.11,8639,16.94,73318.8,5.53,4.97,4.97,0,*4A
1531850896.31,8640,17.0,73324.8,5.51,4.85,4.85,0,*46
1531850897.53,8641,16.94,73330.3,5.51,4.93,4.85,0,*40
1531850898.78,8642,17.0,73340.8,5.51,4.97,4.93,0,*40
1531850900.03,8643,17.0,73336.8,5.51,4.93,4.93,0,*45
1531850901.28,8644,16.94,73336.3,5.51,4.93,5.05,0,*4C
1531850902.54,8645,16.94,73340.8,5.51,4.93,4.93,0,*43
1531850903.79,8646,16.94,73338.3,5.51,4.93,4.97,0,*44
1531850905.04,8647,16.94,73322.8,5.51,4.97,4.97,0,*41
1531850906.29,8648,16.94,73308.5,5.51,5.05,5.05,0,*4E
1531850907.54,8649,16.94,73314.8,5.51,5.05,5.05,0,*4F
1531850908.76,8650,17.0,73318.0,5.53,4.97,4.97,0,*45
1531850910.01,8651,16.94,73324.5,5.51,4.93,4.93,0,*46
1531850911.26,8652,16.94,73324.0,5.51,4.93,4.93,0,*45
1531850912.48,8653,16.94,73322.5,5.53,5.01,4.97,0,*48
1531850913.73,8654,16.94,73334.5,5.57,5.05,5.05,0,*45
1531850914.98,8655,16.94,73328.5,5.51,4.93,4.97,0,*46
1531850916.21,8656,16.94,73338.3,5.53,5.01,4.97,0,*4D
1531850917.43,8657,17.0,73330.8,5.53,4.97,5.01,0,*4C
1531850918.68,8658,16.94,73336.3,5.51,4.93,4.93,0,*4F
1531850919.9,8659,16.94,73334.5,5.53,4.97,4.97,0,*4C
1531850921.12,8660,16.94,73342.0,5.53,5.01,4.97,0,*48
1531850922.35,8661,17.0,73326.5,5.53,5.01,5.01,0,*47
1531850923.6,8662,16.94,73344.0,5.51,4.97,5.05,0,*4C
1531850924.8,8663,16.94,73346.5,5.53,5.01,5.07,0,*43
1531850925.99,8664,16.94,73332.0,5.53,4.97,4.89,0,*4D
1531850927.21,8665,17.0,73332.8,5.53,4.97,4.97,0,*43
1531850928.43,8666,16.94,73344.3,5.53,4.97,4.97,0,*40
1531850929.62,8667,17.0,73342.0,5.51,4.85,4.85,0,*43
1531850930.79,8668,16.94,73324.3,5.53,4.81,4.81,0,*4E
1531850931.95,8669,17.0,73326.5,5.53,4.89,4.89,0,*4F
1531850933.12,8670,17.0,73344.5,5.53,4.89,4.85,0,*4B
1531850934.34,8671,16.94,73336.8,5.53,4.97,4.97,0,*46
1531850935.59,8672,16.94,73328.3,5.51,4.93,4.93,0,*47
1531850936.81,8673,16.94,73332.3,5.53,4.97,4.97,0,*44
1531850938.06,8674,17.0,73328.5,5.51,4.93,4.93,0,*41
1531850939.31,8675,17.0,73330.8,5.51,4.93,5.05,0,*4E
1531850940.51,8676,17.0,73334.8,5.53,5.01,5.07,0,*47
1531850941.71,8677,16.94,73334.3,5.51,5.07,5.07,0,*42
1531850942.88,8678,17.0,73334.0,5.53,5.07,5.07,0,*4F
1531850944.1,8679,16.94,73332.0,5.53,5.01,5.01,0,*4E
1531850945.33,8680,16.94,73332.8,5.53,4.97,5.01,0,*46
1531850946.5,8681,17.0,73334.0,5.53,4.89,4.85,0,*45